Location: Unspecified
(41.1850°N, 73.2650°W)
Time: 13:13:58
(UTC+00:00)

SL-08 R/B - Pass Details

Date: 23 March 2026
Orbit: 946 x 992 km, 83.0° (Epoch: 18 April)

Event Time Altitude Azimuth Distance (km) Brightness Sun altitude
Rises 01:52:50 0° 217° (SW) 3,607 7.5 -30.3°
Reaches altitude 10° 01:55:41 10° 229° (SW) 2,663 6.9 -30.7°
Maximum altitude 02:00:50 28° 287° (WNW) 1,683 6.2 -31.6°
Drops below altitude 10° 02:06:02 10° 346° (NNW) 2,676 7.3 -32.4°
Sets 02:08:55 0° 358° (N) 3,628 8.0 -32.8°
